GW0320 Weather Reports


Display with metric or nautical units.
time (UTC)temp
F
wind
direction
speed
MPH
gust
MPH
rain 1hr
in
rain 24hr
in
rain mn
in
humidity
%
barometer
mb
20260507155336 63 279 3.0 3.0 0.00 0.00 0.00 55 1015.8
20260507154833 64 153 1.0 2.0 0.00 0.00 0.00 56 1015.7
20260507154331 62 79 1.0 1.0 0.00 0.00 0.00 60 1015.7
20260507153828 62 119 1.0 1.0 0.00 0.00 0.00 60 1015.9
20260507153324 62 235 4.0 7.0 0.00 0.00 0.00 58 1015.9
20260507152821 62 352 3.0 3.0 0.00 0.00 0.00 59 1015.8
20260507152317 62 299 3.0 3.0 0.00 0.00 0.00 59 1016.0
20260507151813 61 94 0.0 1.0 0.00 0.00 0.00 61 1016.1
20260507151309 61 259 5.0 8.0 0.00 0.00 0.00 60 1016.0
20260507150807 61 277 3.0 7.0 0.00 0.00 0.00 62 1016.1
20260507150303 60 288 5.0 8.0 0.00 0.00 0.00 62 1016.2
20260507145759 59 171 2.0 2.0 0.00 0.00 0.00 64 1016.3
20260507145256 60 186 2.0 3.0 0.00 0.00 0.00 63 1016.4
20260507144753 59 271 2.0 2.0 0.00 0.00 0.00 64 1016.4
20260507144250 59 150 1.0 2.0 0.00 0.00 0.00 65 1016.4
20260507143746 58 276 3.0 6.0 0.00 0.00 0.00 66 1016.4
20260507143244 57 276 0.0 2.0 0.00 0.00 0.00 66 1016.5
20260507142740 57 278 0.0 1.0 0.00 0.00 0.00 67 1016.4
20260507142237 57 342 2.0 3.0 0.00 0.00 0.00 66 1016.5
20260507141733 56 318 1.0 1.0 0.00 0.00 0.00 69 1016.8
20260507141230 56 254 1.0 1.0 0.00 0.00 0.00 70 1016.5
20260507140726 55 205 0.0 1.0 0.00 0.00 0.00 71 1016.5
20260507140224 54 208 1.0 2.0 0.00 0.00 0.00 72 1016.7
20260507135721 53 216 1.0 2.0 0.00 0.00 0.00 74 1016.8
20260507135218 52 272 3.0 5.0 0.00 0.00 0.00 75 1016.9
20260507134714 52 243 2.0 5.0 0.00 0.00 0.00 76 1016.8
20260507134211 51 189 4.0 8.0 0.00 0.00 0.00 78 1016.5
20260507133707 51 213 1.0 2.0 0.00 0.00 0.00 81 1016.8
20260507133204 50 270 2.0 5.0 0.00 0.00 0.00 82 1016.5
20260507132701 50 255 1.0 2.0 0.00 0.00 0.00 84 1016.7
20260507132157 49 203 0.0 1.0 0.00 0.00 0.00 84 1016.3
20260507131654 49 286 1.0 2.0 0.00 0.00 0.00 84 1016.8
20260507131152 48 227 1.0 2.0 0.00 0.00 0.00 85 1016.8
20260507130648 48 217 0.0 1.0 0.00 0.00 0.00 85 1017.0
20260507130146 47 257 1.0 1.0 0.00 0.00 0.00 87 1016.8
20260507125645 47 232 1.0 1.0 0.00 0.00 0.00 88 1017.0
20260507125142 47 224 1.0 1.0 0.00 0.00 0.00 88 1016.9
20260507124638 46 240 0.0 0.0 0.00 0.00 0.00 88 1016.5
20260507124136 46 165 0.0 0.0 0.00 0.00 0.00 88 1016.9
20260507123634 45 283 0.0 1.0 0.00 0.00 0.00 89 1017.0
20260507123131 45 212 0.0 0.0 0.00 0.00 0.00 89 1016.9
20260507122626 45 223 0.0 0.0 0.00 0.00 0.00 89 1016.8
20260507122122 44 225 0.0 1.0 0.00 0.00 0.00 90 1016.9
20260507121618 44 224 0.0 1.0 0.00 0.00 0.00 90 1017.0
20260507121114 44 208 1.0 1.0 0.00 0.00 0.00 91 1017.0
20260507120610 43 213 0.0 0.0 0.00 0.00 0.00 91 1016.7
20260507120107 43 227 0.0 0.0 0.00 0.00 0.00 92 1017.0
20260507115603 42 311 2.0 2.0 0.00 0.00 0.00 92 1016.8
20260507115059 42 222 0.0 0.0 0.00 0.00 0.00 92 1016.9
20260507114555 42 229 0.0 0.0 0.00 0.00 0.00 93 1016.8
20260507114052 42 228 0.0 0.0 0.00 0.00 0.00 92 1016.9
20260507113549 42 206 0.0 0.0 0.00 0.00 0.00 92 1016.9
20260507113047 42 220 0.0 0.0 0.00 0.00 0.00 92 1016.9
20260507112544 42 247 0.0 0.0 0.00 0.00 0.00 92 1016.8
20260507112041 42 223 0.0 0.0 0.00 0.00 0.00 93 1016.7
20260507111538 42 225 0.0 0.0 0.00 0.00 0.00 93 1016.7
20260507111035 42 288 0.0 0.0 0.00 0.00 0.00 93 1016.7
20260507110531 41 263 0.0 0.0 0.00 0.00 0.00 93 1016.7
20260507110028 41 286 0.0 0.0 0.00 0.00 0.00 93 1016.8
20260507105525 41 236 0.0 0.0 0.00 0.00 0.00 93 1016.5
20260507105021 42 236 0.0 0.0 0.00 0.00 0.00 93 1016.8
20260507104518 42 236 0.0 0.0 0.00 0.00 0.00 93 1016.3
20260507104015 42 236 0.0 0.0 0.00 0.00 0.00 93 1016.4
20260507103511 42 189 0.0 0.0 0.00 0.00 0.00 93 1016.4
20260507103007 42 189 0.0 0.0 0.00 0.00 0.00 92 1016.7
20260507102504 42 189 0.0 0.0 0.00 0.00 0.00 92 1016.7
20260507102000 42 206 0.0 0.0 0.00 0.00 0.00 91 1016.5
20260507101455 42 201 0.0 0.0 0.00 0.00 0.00 91 1016.5
20260507100952 42 230 0.0 0.0 0.00 0.00 0.00 90 1016.9
20260507100450 43 225 0.0 0.0 0.00 0.00 0.00 89 1016.9
20260507095948 42 216 0.0 0.0 0.00 0.00 0.00 90 1016.9
20260507095445 42 230 0.0 0.0 0.00 0.00 0.00 90 1017.0
20260507094942 42 203 0.0 0.0 0.00 0.00 0.00 89 1016.7
20260507094438 42 240 0.0 0.0 0.00 0.00 0.00 89 1016.8
20260507093935 42 229 0.0 0.0 0.00 0.00 0.00 89 1016.9
20260507093433 42 244 0.0 0.0 0.00 0.00 0.00 88 1016.7
20260507092931 42 262 0.0 0.0 0.00 0.00 0.00 89 1017.0
20260507092427 42 221 0.0 0.0 0.00 0.00 0.00 88 1017.2
20260507091924 42 210 0.0 0.0 0.00 0.00 0.00 88 1017.0
20260507091420 42 224 0.0 0.0 0.00 0.00 0.00 88 1017.3
20260507090916 42 223 0.0 0.0 0.00 0.00 0.00 88 1017.0
20260507090412 42 223 0.0 0.0 0.00 0.00 0.00 88 1017.2
20260507085909 42 212 0.0 0.0 0.00 0.00 0.00 87 1017.1
20260507085406 42 212 0.0 0.0 0.00 0.00 0.00 87 1017.3
20260507084903 42 210 0.0 0.0 0.00 0.00 0.00 87 1017.1
20260507084400 43 211 0.0 0.0 0.00 0.00 0.00 87 1017.4
20260507083857 43 207 0.0 0.0 0.00 0.00 0.00 86 1017.4
20260507083353 43 203 0.0 0.0 0.00 0.00 0.00 86 1017.2
20260507082850 42 222 0.0 1.0 0.00 0.00 0.00 86 1017.4
20260507082345 42 220 0.0 0.0 0.00 0.00 0.00 86 1017.2
20260507081843 42 217 0.0 0.0 0.00 0.00 0.00 86 1017.4
20260507081339 43 217 0.0 0.0 0.00 0.00 0.00 85 1017.2
20260507080836 42 217 0.0 0.0 0.00 0.00 0.00 84 1017.4
20260507080332 42 217 0.0 0.0 0.00 0.00 0.00 84 1017.4
20260507075828 43 217 0.0 0.0 0.00 0.00 0.00 83 1017.4
20260507075324 42 217 0.0 0.0 0.00 0.00 0.00 83 1017.2
20260507074820 43 217 0.0 0.0 0.00 0.00 0.00 82 1017.4
20260507074318 43 217 0.0 0.0 0.00 0.00 0.00 82 1017.3
20260507073815 43 217 0.0 0.0 0.00 0.00 0.00 82 1017.4
20260507073312 43 217 0.0 0.0 0.00 0.00 0.00 81 1017.4
20260507072809 43 217 0.0 0.0 0.00 0.00 0.00 81 1017.3
20260507072308 44 217 0.0 0.0 0.00 0.00 0.00 80 1017.5
20260507071804 44 223 0.0 0.0 0.00 0.00 0.00 80 1017.6
20260507071300 44 223 0.0 0.0 0.00 0.00 0.00 79 1017.7
20260507070756 44 223 0.0 0.0 0.00 0.00 0.00 78 1017.6
20260507070254 45 223 0.0 0.0 0.00 0.00 0.00 78 1017.7
20260507065750 45 223 0.0 0.0 0.00 0.00 0.00 77 1017.8
20260507065247 45 223 0.0 0.0 0.00 0.00 0.00 76 1017.9
20260507064744 46 223 0.0 0.0 0.00 0.00 0.00 75 1017.7
20260507064243 46 215 0.0 0.0 0.00 0.00 0.00 74 1017.8
20260507063740 46 223 0.0 0.0 0.00 0.00 0.00 72 1017.8
20260507063237 47 220 0.0 0.0 0.00 0.00 0.00 71 1017.8
20260507062734 47 234 0.0 0.0 0.00 0.00 0.00 71 1018.0
20260507062231 47 233 0.0 0.0 0.00 0.00 0.00 69 1017.9
20260507061730 47 227 0.0 1.0 0.00 0.00 0.00 68 1018.0
20260507061227 48 233 0.0 0.0 0.00 0.00 0.00 68 1018.0
20260507060725 48 256 0.0 0.0 0.00 0.00 0.00 68 1018.0
20260507060221 48 255 0.0 0.0 0.00 0.00 0.00 69 1018.2
20260507055717 48 230 0.0 1.0 0.00 0.00 0.00 67 1018.2
20260507055213 49 217 0.0 1.0 0.00 0.00 0.00 67 1018.2
20260507054709 49 233 0.0 0.0 0.00 0.00 0.00 67 1018.4
20260507054206 49 236 0.0 0.0 0.00 0.00 0.00 66 1018.2
20260507053704 49 269 0.0 0.0 0.00 0.00 0.00 65 1018.1
20260507053202 49 264 0.0 1.0 0.00 0.00 0.00 66 1018.1
20260507052701 50 227 0.0 0.0 0.00 0.00 0.00 67 1018.3
20260507052156 49 224 1.0 1.0 0.00 0.00 0.00 65 1018.1
20260507051654 49 316 2.0 2.0 0.00 0.00 0.00 67 1018.3
20260507051150 49 228 0.0 0.0 0.00 0.00 0.00 68 1018.2
20260507050647 49 242 0.0 0.0 0.00 0.00 0.00 67 1018.2
20260507050144 49 239 0.0 0.0 0.00 0.00 0.00 69 1017.9
20260507045641 49 241 0.0 0.0 0.00 0.01 0.01 65 1018.1
20260507045137 49 225 0.0 0.0 0.00 0.01 0.01 68 1018.0
20260507044634 50 230 0.0 0.0 0.00 0.01 0.01 67 1018.1
20260507044131 49 269 1.0 1.0 0.00 0.01 0.01 65 1018.0
20260507043627 49 236 0.0 0.0 0.00 0.01 0.01 65 1018.1
20260507043124 50 242 0.0 0.0 0.00 0.01 0.01 64 1018.1
20260507042620 50 248 0.0 0.0 0.00 0.01 0.01 62 1018.2
20260507042116 50 224 0.0 0.0 0.00 0.01 0.01 65 1017.9
20260507041613 50 227 0.0 0.0 0.00 0.01 0.01 61 1018.2
20260507041110 50 230 0.0 1.0 0.00 0.01 0.01 61 1018.2
20260507040607 50 227 0.0 0.0 0.00 0.01 0.01 63 1018.1
20260507035559 49 229 0.0 0.0 0.00 0.01 0.01 64 1018.0
20260507035055 49 225 0.0 0.0 0.00 0.01 0.01 67 1018.4
20260507034552 49 226 0.0 0.0 0.00 0.01 0.01 66 1018.2
20260507034050 48 225 0.0 0.0 0.00 0.01 0.01 69 1018.4
20260507033548 48 222 0.0 0.0 0.00 0.01 0.01 66 1018.4
20260507033044 48 222 0.0 0.0 0.00 0.01 0.01 65 1018.2
20260507032542 48 220 0.0 0.0 0.00 0.01 0.01 67 1018.3
20260507032038 47 216 0.0 0.0 0.00 0.01 0.01 66 1018.3
20260507031534 47 214 0.0 0.0 0.00 0.01 0.01 66 1018.2
20260507031032 47 220 0.0 0.0 0.00 0.01 0.01 66 1018.2
20260507030528 47 220 0.0 0.0 0.00 0.01 0.01 67 1017.9
20260507030026 47 220 0.0 0.0 0.00 0.01 0.01 68 1018.2
20260507025523 46 209 0.0 0.0 0.00 0.01 0.01 67 1018.1
20260507025020 46 209 0.0 0.0 0.00 0.01 0.01 67 1018.2
20260507024518 46 209 0.0 0.0 0.00 0.01 0.01 68 1018.1
20260507024014 46 209 0.0 0.0 0.00 0.01 0.01 71 1018.1
20260507023510 46 209 0.0 0.0 0.00 0.01 0.01 69 1018.1
20260507023008 47 209 0.0 0.0 0.00 0.01 0.01 69 1018.1
20260507022505 47 209 0.0 0.0 0.00 0.01 0.01 68 1017.9
20260507022000 47 209 0.0 0.0 0.00 0.01 0.01 67 1018.1
20260507021456 47 209 0.0 0.0 0.00 0.01 0.01 66 1017.8
20260507020953 47 210 0.0 0.0 0.00 0.01 0.01 65 1017.6
20260507020450 47 210 0.0 0.0 0.00 0.01 0.01 64 1017.7
20260507015947 47 207 0.0 0.0 0.00 0.01 0.01 63 1017.7
20260507015446 48 207 0.0 0.0 0.00 0.01 0.01 64 1017.8
20260507014942 48 207 0.0 0.0 0.00 0.01 0.01 66 1017.7
20260507014439 48 207 0.0 0.0 0.00 0.01 0.01 64 1017.6
20260507013935 48 186 0.0 0.0 0.00 0.01 0.01 64 1017.7
20260507013432 49 140 0.0 0.0 0.00 0.01 0.01 66 1017.6
20260507012929 50 140 0.0 0.0 0.00 0.01 0.01 64 1017.7
20260507012426 50 140 0.0 0.0 0.00 0.01 0.01 63 1017.6
20260507011922 51 200 0.0 0.0 0.00 0.01 0.01 56 1017.5
20260507011420 51 200 0.0 0.0 0.00 0.01 0.01 54 1017.5
20260507010920 52 201 0.0 0.0 0.00 0.01 0.01 54 1017.6
20260507010415 52 200 0.0 0.0 0.00 0.01 0.01 52 1017.6
20260507005913 53 165 0.0 0.0 0.00 0.01 0.01 51 1017.5
20260507005409 53 165 0.0 0.0 0.00 0.01 0.01 51 1017.5
20260507004906 54 164 0.0 0.0 0.00 0.01 0.01 51 1017.3
20260507004403 54 164 0.0 0.0 0.00 0.01 0.01 54 1017.5
20260507003900 55 164 0.0 0.0 0.00 0.01 0.01 51 1017.6
20260507003355 55 198 0.0 0.0 0.00 0.01 0.01 50 1017.7
20260507002851 55 172 0.0 0.0 0.00 0.01 0.01 49 1017.4
20260507002347 56 172 0.0 0.0 0.00 0.01 0.01 51 1017.7
20260507001844 56 154 0.0 0.0 0.00 0.01 0.01 51 1017.4
20260507001341 57 101 0.0 0.0 0.00 0.01 0.01 43 1017.3
20260507000838 57 172 0.0 0.0 0.00 0.01 0.01 50 1017.4
20260507000335 57 81 0.0 0.0 0.00 0.01 0.01 40 1017.4
20260506235830 57 338 1.0 1.0 0.00 0.01 0.01 41 1017.6
20260506235327 58 331 0.0 0.0 0.00 0.01 0.01 41 1017.6
20260506234823 58 151 0.0 0.0 0.00 0.01 0.01 43 1017.6
20260506234321 58 44 0.0 0.0 0.00 0.01 0.01 41 1017.6
20260506233818 58 109 1.0 1.0 0.00 0.01 0.01 39 1017.8
20260506233313 58 180 0.0 1.0 0.00 0.01 0.01 40 1017.7
20260506232810 58 199 0.0 0.0 0.00 0.01 0.01 40 1017.6
20260506232306 59 35 1.0 1.0 0.00 0.01 0.01 39 1017.5
20260506231803 59 33 0.0 1.0 0.00 0.01 0.01 37 1017.6
20260506231301 59 203 1.0 1.0 0.00 0.01 0.01 39 1017.5
20260506230758 59 1 1.0 1.0 0.00 0.01 0.01 38 1017.7
20260506230249 60 351 1.0 2.0 0.00 0.01 0.01 36 1017.7
20260506225745 61 207 0.0 0.0 0.00 0.01 0.01 37 1017.5
20260506225243 60 328 1.0 1.0 0.00 0.01 0.01 36 1017.7
20260506224739 61 19 0.0 0.0 0.00 0.01 0.01 37 1017.8
20260506224237 61 245 2.0 2.0 0.00 0.01 0.01 37 1017.6
20260506223732 60 248 0.0 1.0 0.00 0.01 0.01 39 1017.6
20260506223228 61 94 1.0 2.0 0.00 0.01 0.01 38 1017.5
20260506222725 61 350 0.0 1.0 0.00 0.01 0.01 35 1017.6
20260506222220 61 358 2.0 2.0 0.00 0.01 0.01 37 1017.4
20260506221719 61 302 0.0 1.0 0.00 0.01 0.01 38 1017.3
20260506221217 61 283 0.0 0.0 0.00 0.01 0.01 39 1017.5
20260506220714 63 126 0.0 1.0 0.00 0.01 0.01 39 1017.7
20260506220208 62 229 1.0 1.0 0.00 0.01 0.01 36 1017.7
20260506215705 61 185 3.0 3.0 0.00 0.01 0.01 37 1017.6
20260506215201 60 317 1.0 1.0 0.00 0.01 0.01 38 1017.8
20260506214658 62 212 1.0 1.0 0.00 0.01 0.01 37 1017.9
20260506214155 61 329 1.0 1.0 0.00 0.01 0.01 37 1017.9
20260506213654 60 291 0.0 0.0 0.00 0.01 0.01 39 1017.8
20260506213150 60 336 1.0 2.0 0.00 0.01 0.01 38 1018.1
20260506212648 61 307 1.0 1.0 0.00 0.01 0.01 39 1018.1
20260506212142 61 11 1.0 2.0 0.00 0.01 0.01 38 1018.1
20260506211638 61 162 0.0 1.0 0.00 0.01 0.01 36 1018.1
20260506211135 62 359 1.0 2.0 0.00 0.01 0.01 39 1018.3
20260506210632 62 81 0.0 1.0 0.00 0.01 0.01 38 1018.4
20260506210129 61 313 1.0 1.0 0.00 0.01 0.01 38 1018.4
20260506205626 62 1 3.0 3.0 0.00 0.01 0.01 35 1018.3
20260506205120 61 213 0.0 1.0 0.00 0.01 0.01 39 1018.6
20260506204618 61 311 1.0 1.0 0.00 0.01 0.01 38 1018.5
20260506204115 61 273 1.0 1.0 0.00 0.01 0.01 39 1018.6
20260506203614 62 320 0.0 1.0 0.00 0.01 0.01 40 1018.8
20260506203109 60 345 1.0 1.0 0.00 0.01 0.01 37 1018.9
20260506202608 62 116 0.0 1.0 0.00 0.01 0.01 38 1018.9
20260506202104 60 235 1.0 2.0 0.00 0.01 0.01 41 1018.9
20260506201601 61 19 3.0 3.0 0.00 0.01 0.01 37 1019.1
20260506201058 62 206 1.0 2.0 0.00 0.01 0.01 36 1018.7
20260506200554 61 13 2.0 2.0 0.00 0.01 0.01 37 1019.2
20260506200051 62 280 1.0 1.0 0.00 0.01 0.01 37 1019.2
20260506195547 61 31 2.0 2.0 0.00 0.01 0.01 42 1019.1
20260506195044 62 60 1.0 1.0 0.00 0.01 0.01 39 1019.0
20260506194542 61 245 1.0 1.0 0.00 0.01 0.01 36 1019.1
20260506194038 61 2 1.0 1.0 0.00 0.01 0.01 38 1019.1
20260506193535 61 336 3.0 3.0 0.00 0.01 0.01 38 1019.2
20260506193032 61 182 1.0 1.0 0.00 0.01 0.01 39 1019.1
20260506192529 62 354 1.0 1.0 0.00 0.01 0.01 40 1019.2
20260506192025 62 213 1.0 1.0 0.00 0.01 0.01 39 1019.4
20260506191522 61 193 3.0 5.0 0.00 0.01 0.01 38 1019.1
20260506191018 60 16 1.0 1.0 0.00 0.01 0.01 40 1019.2
20260506190515 59 347 1.0 1.0 0.00 0.01 0.01 39 1019.3
20260506190012 59 34 1.0 2.0 0.00 0.01 0.01 40 1019.2
20260506185509 59 349 2.0 2.0 0.00 0.01 0.01 41 1019.2
20260506185006 59 85 2.0 3.0 0.00 0.01 0.01 42 1019.3
20260506184503 59 4 1.0 2.0 0.00 0.01 0.01 40 1019.3
20260506184000 60 0 0.0 1.0 0.00 0.01 0.01 36 1019.5
20260506183456 60 276 2.0 5.0 0.00 0.01 0.01 41 1019.5
20260506182953 59 5 2.0 2.0 0.00 0.01 0.01 38 1019.8
20260506182450 61 338 2.0 3.0 0.00 0.01 0.01 38 1019.5
20260506181947 60 282 0.0 0.0 0.00 0.01 0.01 40 1019.7
20260506181445 60 327 1.0 1.0 0.00 0.01 0.01 39 1019.8
20260506180942 60 14 1.0 1.0 0.00 0.01 0.01 40 1019.7
20260506180438 60 64 2.0 2.0 0.00 0.01 0.01 44 1019.8
20260506175935 59 231 3.0 5.0 0.00 0.01 0.01 40 1019.9
20260506175432 59 51 0.0 0.0 0.00 0.01 0.01 41 1019.7
20260506174928 58 338 1.0 1.0 0.00 0.01 0.01 44 1019.8
20260506174426 59 178 1.0 2.0 0.00 0.01 0.01 40 1019.9
20260506173923 60 292 0.0 0.0 0.00 0.01 0.01 38 1020.1
20260506173420 57 205 0.0 0.0 0.00 0.01 0.01 46 1020.0
20260506172917 58 341 2.0 2.0 0.00 0.01 0.01 42 1020.1
20260506172414 58 352 1.0 1.0 0.00 0.01 0.01 42 1020.0
20260506171911 57 23 0.0 0.0 0.00 0.01 0.01 43 1020.0
20260506171408 57 29 1.0 2.0 0.00 0.01 0.01 37 1020.2
20260506170906 57 344 1.0 2.0 0.00 0.01 0.01 42 1020.1
20260506170402 56 319 0.0 1.0 0.00 0.01 0.01 42 1020.0
20260506165901 57 356 1.0 2.0 0.00 0.01 0.01 43 1020.1
20260506165359 57 329 0.0 0.0 0.00 0.01 0.01 42 1020.2
20260506164855 56 11 0.0 1.0 0.00 0.01 0.01 43 1020.1
20260506164351 56 335 1.0 1.0 0.00 0.01 0.01 44 1020.2
20260506163850 56 339 0.0 1.0 0.00 0.01 0.01 43 1019.9
20260506163343 56 12 0.0 1.0 0.00 0.01 0.01 44 1020.1
20260506162839 56 25 0.0 1.0 0.00 0.01 0.01 45 1020.0
20260506162337 56 17 1.0 2.0 0.00 0.01 0.01 44 1019.9
20260506161834 56 350 1.0 2.0 0.00 0.01 0.01 44 1019.8
20260506161332 56 11 1.0 1.0 0.00 0.01 0.01 42 1019.8
20260506160829 57 2 1.0 3.0 0.00 0.01 0.01 43 1019.9
20260506160326 57 11 1.0 1.0 0.00 0.01 0.01 46 1019.8
20260506155825 56 41 0.0 0.0 0.00 0.01 0.01 43 1019.8